Location: Les Aiguiers
(43.2000°N, 6.0333°E)
Time: 01:04:54
(UTC+00:00)

Daily predictions for brighter satellites

Satellite Brightness Start Highest point End
(mag) Time Altitude Azimuth Time Altitude Azimuth Time Altitude Azimuth
GEOS 3 Rocket 4.0 00:07:39 35° ESE 00:09:46 63° NE 00:15:00 10° NNW
Cosmos 1726 3.7 00:08:41 10° NNW 00:10:54 28° NW 00:10:54 28° NW
COSMOS 2455 2.8 00:11:40 61° S 00:12:35 72° ESE 00:18:36 10° NE
Cosmos 2058 Rocket 3.8 00:09:08 10° N 00:13:21 43° ENE 00:13:46 42° E
Meteor 1-29 4.3 00:11:17 10° NNE 00:13:32 38° NNE 00:13:32 38° NNE
Cosmos 2228 3.1 00:11:39 10° N 00:15:32 73° N 00:15:32 73° N
SL-14 R/B 4.3 00:18:39 39° ENE 00:18:39 39° ENE 00:21:50 10° NNE
Meteor 2-15 Rocket 4.4 00:13:35 10° NNW 00:19:43 71° W 00:20:55 57° SSW
Cosmos 1953 4.0 00:16:56 10° NNW 00:19:26 25° WNW 00:19:26 25° WNW
Cosmos 1340 Rocket 4.1 00:18:19 10° NNW 00:21:08 32° WNW 00:21:08 32° WNW
Okean 1-7 Rocket 3.8 00:22:03 60° E 00:22:04 60° E 00:26:30 10° NNE
Cosmos 921 Rocket 4.1 00:23:34 33° E 00:23:34 33° E 00:27:15 10° NE
Cosmos 1300 3.8 00:21:31 10° N 00:25:04 38° ENE 00:25:04 38° ENE
COSMOS 2487 3.9 00:25:12 10° NNW 00:27:18 34° NNW 00:27:18 34° NNW
Cosmos 1833 4.4 00:24:10 10° NW 00:29:35 50° WSW 00:29:45 50° WSW
Cosmos 1626 2.7 00:34:31 56° NE 00:34:31 56° NE 00:37:38 10° NNE
Cosmos 1656 Rocket 4.4 00:33:51 35° W 00:35:31 44° WNW 00:40:53 10° NNE
Cosmos 1606 Rocket 4.1 00:35:06 10° NNW 00:38:48 45° WNW 00:38:48 45° WNW
FALCON 9 R/B 3.2 00:38:25 43° SSW 00:39:54 48° SSE 00:57:23 10° E
Nadezhda 1 Rocket 4.5 00:36:44 10° N 00:42:46 54° ENE 00:45:52 29° SE
MOZ.5/SAFIR/RUBIN 5/SL-8 4.3 00:44:16 38° ESE 00:45:38 53° ENE 00:50:09 10° N
Meteor 2-21 4.4 00:45:34 50° SSW 00:47:11 71° W 00:53:22 10° N
Cosmos 2297 Rocket 3.9 00:44:09 10° N 00:49:06 30° NE 00:54:02 10° ESE
SL-4 R/B 2.4 00:49:12 58° W 00:50:05 77° NNW 00:54:52 10° NE
Cosmos 1437 4.1 00:52:48 36° NNE 00:52:48 36° NNE 00:54:46 10° NNE
NOSS 3-2 (C) 4.5 00:45:12 10° NW 00:52:29 44° WSW 00:54:29 38° SSW
Cosmos 1674 4.4 00:53:21 23° WNW 00:53:21 23° WNW 00:55:58 10° NNW
ATLAS CENTAUR R/B 1.8 00:56:56 50° W 00:57:27 54° NW 01:01:33 10° NNE
SL-19 R/B 4.3 00:53:09 10° N 00:58:33 70° WNW 01:00:03 48° SW
SL-16 R/B 2.8 00:56:01 25° SE 00:59:40 66° ENE 01:05:47 10° N
NOSS 3-4 (A) 4.2 00:57:31 26° W 01:00:29 45° NW 01:06:35 10° NNE
NOSS 3-4 (C) 4.2 00:57:38 26° W 01:00:35 45° NW 01:06:42 10° NNE
Cosmos 1777 Rocket 3.9 00:55:42 10° NNW 01:00:55 70° WSW 01:01:54 56° SSW
FALCON 9 DEB 4.3 01:02:08 37° E 01:02:08 37° E 01:04:30 10° ENE
Spot 1 4.2 01:00:54 60° WSW 01:01:13 62° WSW 01:06:00 10° NNW
BREEZE-M R/B 3.0 01:01:07 68° SSE 01:01:16 68° SSE 01:04:31 10° ENE
Timation 2 Rocket 3.9 00:54:53 10° NNW 01:01:16 88° ENE 01:04:30 30° SSE
Cosmos 1602 Rocket 4.0 01:01:58 45° SE 01:02:44 51° E 01:06:56 10° NNE
STARLINK-29 3.9 01:04:34 46° NE 01:04:34 46° NE 01:06:55 10° NE
Cosmos 1455 4.2 01:04:23 10° NNE 01:07:27 24° ENE 01:09:23 16° ESE
ATLAS 3B R/B 2.6 01:01:38 10° NW 01:08:25 72° WSW 01:12:43 25° SSE
CENTAUR R/B 3.7 01:04:43 10° NW 01:12:16 40° WSW 01:14:47 33° SSW
BREEZE-M DEB (TANK) 2.7 01:12:38 34° NNW 01:12:38 34° NNW 01:14:40 10° NE
Meteor 2-1 Rocket 4.4 01:09:28 10° N 01:14:58 65° ENE 01:18:03 26° SSE
Cosmos 1745 Rocket 3.9 01:12:45 41° SSW 01:15:04 84° W 01:21:15 10° N
Cosmos 1867 4.0 01:11:38 10° NW 01:16:41 39° WSW 01:16:44 39° WSW
STARLINK-1390 4.5 01:19:27 31° ESE 01:19:27 31° ESE 01:22:04 10° ENE
RESURS DK-1 2.6 01:19:17 50° W 01:19:49 55° WNW 01:23:55 10° NNE
Meteor 1-24 Rocket 4.3 01:22:03 34° WSW 01:23:28 40° WNW 01:28:31 10° N
Cosmos 2227 Rocket 3.1 01:19:25 10° NNW 01:24:56 47° ENE 01:30:22 10° SE
Cosmos 1356 Rocket 3.3 01:21:04 10° NNW 01:25:12 72° W 01:25:49 60° SSW
Cosmos 1697 Rocket 4.1 01:23:11 18° SSE 01:26:15 28° ESE 01:31:01 10° NE
CZ-2D R/B 2.0 01:23:01 10° NNE 01:28:19 88° WNW 01:30:15 40° SSW
ATLAS 2AS CENTAUR R/B 4.1 01:23:17 14° WSW 01:29:34 38° NW 01:36:51 10° NNE
IKONOS-2 4.4 01:29:56 51° S 01:30:57 75° WSW 01:35:14 10° NNW
ADEOS II 3.1 01:26:04 10° NNE 01:30:58 38° E 01:34:07 20° SSE
CZ-4C R/B 3.5 01:30:46 52° SW 01:31:14 56° W 01:35:29 10° NNW
STARLINK-1228 3.0 01:32:36 10° NW 01:35:57 84° NE 01:39:17 10° SE
STARLINK-1234 2.9 01:34:01 10° NW 01:41:17 - SE 01:37:02 78° N
Resurs 1-4 Rocket 2.1 01:32:47 10° N 01:38:04 71° WNW 01:40:11 37° SSW
STARLINK-1212 3.3 01:35:25 10° NW 01:38:29 60° NNE 01:41:34 10° ESE
USA 81 4.0 01:36:19 36° S 01:38:35 88° W 01:43:54 10° N
STARLINK-1105 3.3 01:35:53 10° NW 01:38:57 60° NNE 01:42:01 10° ESE
STARLINK-1209 3.4 01:36:16 10° NW 01:44:32 - SE 01:38:42 50° NW
STARLINK-1247 3.3 01:36:47 10° NW 01:39:53 62° NNE 01:42:59 10° ESE
STARLINK-52 3.7 01:39:41 40° WNW 01:40:12 45° NNW 01:43:18 10° NE
STARLINK-1227 3.3 01:37:15 10° NW 01:40:20 62° NNE 01:43:24 10° ESE
Cosmos 1758 Rocket 3.8 01:39:23 34° SSE 01:41:05 63° E 01:45:25 10° NNE
STARLINK-1226 3.2 01:38:06 10° NW 01:41:11 63° NNE 01:44:17 10° ESE
STARLINK-1215 3.2 01:39:02 10° NW 01:42:09 65° NNE 01:45:14 10° ESE
ARIANE 5 R/B 4.0 01:38:36 10° NE 01:43:02 30° E 01:46:55 12° SSE
STARLINK-1217 3.1 01:40:48 10° NW 01:43:54 67° NNE 01:47:00 10° ESE
STARLINK-1229 3.1 01:41:43 10° NW 01:44:50 69° NE 01:47:57 10° ESE
NPP 3.7 01:40:07 10° N 01:45:30 72° WNW 01:47:57 33° SSW
STARLINK-1270 3.1 01:42:35 10° NW 01:45:42 70° NE 01:48:49 10° ESE
STARLINK-1189 3.0 01:44:25 10° NW 01:47:33 73° NE 01:50:39 10° ESE
STARLINK-1188 3.0 01:45:18 10° NW 01:48:26 74° NE 01:51:33 10° ESE
STARLINK-1235 2.7 01:45:59 10° NW 01:49:05 83° SW 01:52:10 10° SE
STARLINK-1187 2.7 01:46:24 10° NW 01:49:30 86° NNE 01:52:37 10° SE
Meteor 1-21 Rocket 4.1 01:46:48 32° SSW 01:49:33 82° W 01:55:15 10° N
Cosmos 1898 Rocket 3.9 01:44:55 10° NNW 01:50:15 64° ENE 01:55:30 10° SSE
STARLINK-1191 2.9 01:47:46 10° NW 01:50:53 78° NE 01:53:59 10° ESE
Cosmos 1656 3.7 01:48:20 31° SSW 01:51:08 82° ESE 01:56:49 10° NNE
Lacrosse 4 Rocket 4.1 01:48:09 10° N 01:51:35 22° NE 01:54:56 10° E
STARLINK-1221 2.8 01:48:38 10° NW 01:51:44 80° NNE 01:54:51 10° ESE
STARLINK-1222 2.8 01:49:32 10° NW 01:52:39 81° NE 01:55:45 10° ESE
CZ-4C R/B 2.8 01:50:43 25° S 01:53:09 42° ESE 01:58:28 10° NE
STARLINK-1214 2.8 01:50:27 10° NW 01:53:33 83° NE 01:56:39 10° SE
Cosmos 2084 4.0 01:52:18 31° WSW 01:54:05 52° NW 01:58:28 10° NNE
Cosmos 468 Rocket 3.9 01:52:22 31° SSW 01:54:52 80° ESE 02:00:01 10° NNE
SJ 16-02 1.4 01:51:18 10° NNW 01:55:46 83° ENE 01:59:17 16° SSE
Cosmos 1953 Rocket 4.2 01:54:38 21° SSE 01:57:26 52° E 02:01:45 10° NNE
COSMOS 2455 4.5 01:54:47 12° W 01:59:06 24° NW 02:03:57 10° N
Cosmos 2369 4.3 01:55:55 21° S 01:59:29 50° ESE 02:04:56 10° NE
Cosmos 1937 Rocket 4.1 01:55:19 10° NNW 02:00:29 57° ENE 02:05:40 10° SE
Meteor 2-10 Rocket 3.5 01:57:28 10° NNW 02:02:46 69° W 02:06:01 23° S
STARLINK-1198 4.5 01:59:58 10° NW 02:04:02 52° NNE 02:08:05 10° ESE
Cosmos 1709 Rocket 4.0 02:01:48 26° SSW 02:05:14 63° W 02:11:20 10° N
STARLINK-1199 4.3 02:04:57 10° NW 02:09:03 56° NNE 02:13:08 10° ESE
STARLINK-1210 4.2 02:09:55 10° NW 02:14:02 61° NNE 02:18:08 10° ESE
STARLINK-1320 3.1 02:14:52 35° W 02:15:57 62° NNW 02:19:03 10° NE
STARLINK-1322 3.1 02:15:11 34° W 02:16:17 61° NNW 02:19:24 10° NE
STARLINK-1324 3.1 02:15:32 34° W 02:16:39 61° NNW 02:19:45 10° NE
STARLINK-1294 3.1 02:15:47 33° W 02:16:56 61° NNW 02:20:03 10° NE
STARLINK-1261 3.2 02:16:09 33° W 02:17:18 60° NNW 02:20:24 10° NE
STARLINK-1325 3.2 02:16:30 33° W 02:17:40 60° NNW 02:20:46 10° NE
Cosmos 2219 3.4 02:12:22 10° NW 02:17:47 47° WSW 02:22:14 15° S
STARLINK-1333 3.2 02:16:48 32° W 02:17:59 59° NNW 02:21:04 10° NE
STARLINK-1334 3.2 02:17:07 32° W 02:18:19 59° NNW 02:21:25 10° NE
Cosmos 1980 Rocket 3.2 02:13:41 12° S 02:18:25 40° ESE 02:23:39 10° NE
STARLINK-1326 3.2 02:17:28 32° W 02:18:40 58° NNW 02:21:45 10° NE
STARLINK-1323 3.2 02:17:47 31° W 02:19:00 58° NNW 02:22:05 10° NE
STARLINK-1219 4.0 02:14:53 10° NW 02:19:02 65° NNE 02:23:08 10° ESE
STARLINK-1338 3.3 02:17:39 30° WSW 02:19:12 69° NNW 02:22:40 10° NE
STARLINK-1349 3.2 02:18:06 31° W 02:19:20 58° NNW 02:22:25 10° NE
STARLINK-1336 3.2 02:18:28 31° W 02:19:42 57° NNW 02:22:47 10° NE
STARLINK-1331 3.2 02:18:45 30° W 02:20:00 57° NNW 02:23:06 10° NE
STARLINK-1344 3.3 02:19:05 30° W 02:20:21 56° NNW 02:23:25 10° NE
STARLINK-1343 3.3 02:19:25 30° W 02:20:41 56° NNW 02:23:46 10° NE
STARLINK-1346 3.3 02:19:43 29° W 02:21:03 56° NNW 02:24:09 10° NE
Cosmos 1328 3.8 02:19:18 27° SSW 02:21:17 63° W 02:25:16 10° N
STARLINK-1328 3.3 02:20:05 29° W 02:21:23 55° NNW 02:24:28 10° NE
STARLINK-1354 3.3 02:20:22 29° W 02:21:42 55° NNW 02:24:46 10° NE
STARLINK-1347 3.3 02:20:44 29° W 02:22:04 54° NNW 02:25:08 10° NE
STARLINK-1357 3.3 02:21:01 28° W 02:22:22 54° NNW 02:25:27 10° NE
STARLINK-1335 3.3 02:21:22 28° W 02:22:44 54° NNW 02:25:48 10° NE
STARLINK-1327 3.3 02:21:41 28° W 02:23:03 53° NNW 02:26:07 10° NE
STARLINK-1371 3.4 02:21:31 27° WSW 02:23:14 64° NNW 02:26:43 10° NE
STARLINK-1340 3.4 02:22:01 27° W 02:23:24 53° NNW 02:26:29 10° NE
CRYOSAT 2 4.3 02:18:41 10° N 02:23:36 77° W 02:27:16 18° SSW
ERS-2 2.7 02:20:01 10° SSE 02:23:36 60° ENE 02:27:14 10° N
STARLINK-1356 3.4 02:22:21 27° W 02:23:45 53° NNW 02:26:49 10° NE
STARLINK-1211 3.9 02:19:51 10° NW 02:24:00 71° NE 02:28:07 10° ESE
STARLINK-1345 3.4 02:22:41 27° W 02:24:05 52° NNW 02:27:09 10° NE
STARLINK-1355 3.4 02:22:59 26° W 02:24:25 52° NNW 02:27:29 10° NE
STARLINK-1321 3.4 02:23:18 26° W 02:24:45 52° NNW 02:27:48 10° NE
STARLINK-1358 3.4 02:23:39 26° W 02:25:07 51° NNW 02:28:10 10° NE
STARLINK-1341 3.4 02:23:29 25° WSW 02:25:17 61° NNW 02:28:46 10° NE
STARLINK-1332 3.4 02:23:57 26° W 02:25:26 51° NNW 02:28:28 10° NE
STARLINK-1348 3.4 02:24:18 25° W 02:25:47 51° NNW 02:28:50 10° NE
STARLINK-1330 3.4 02:24:36 25° W 02:26:06 50° NNW 02:29:09 10° NE
STARLINK-1363 3.5 02:24:56 25° W 02:26:26 50° NNW 02:29:30 10° NE
STARLINK-1337 3.5 02:25:15 25° W 02:26:46 50° NNW 02:29:50 10° NE
STARLINK-1342 3.5 02:25:35 24° W 02:27:07 49° NNW 02:30:10 10° NE
STARLINK-1374 3.5 02:25:26 24° WSW 02:27:20 59° NNW 02:30:49 10° NE
STARLINK-1364 3.5 02:25:55 24° W 02:27:28 49° NNW 02:30:31 10° NE
STARLINK-1376 3.5 02:26:15 24° W 02:27:49 49° NNW 02:30:52 10° NE
STARLINK-1360 3.5 02:26:30 24° W 02:28:05 48° NNW 02:31:09 10° NE
STARLINK-1361 3.5 02:26:56 23° W 02:28:32 48° NNW 02:31:34 10° NE
STARLINK-1367 3.5 02:27:10 23° W 02:28:47 48° NNW 02:31:52 10° NE
CSL-04 DEB 4.5 02:24:35 10° SSE 02:28:49 89° W 02:33:10 10° NNW
STARLINK-1245 3.8 02:24:50 10° NW 02:29:00 76° NE 02:33:08 10° ESE
STARLINK-1366 3.5 02:27:33 23° W 02:29:10 47° NNW 02:32:12 10° NE
IRS-1C 4.1 02:23:54 10° NNE 02:29:16 78° WNW 02:33:25 17° SSW
STARLINK-1339 3.6 02:27:27 23° WSW 02:29:25 57° NNW 02:32:53 10° NE
SL-4 R/B 3.9 02:26:02 10° WNW 02:30:21 32° NNW 02:34:33 10° NE
STARLINK-1377 3.6 02:29:28 22° WSW 02:31:32 55° NNW 02:34:59 10° NE
Cosmos 2297 Rocket 2.5 02:27:58 10° NW 02:33:18 44° WSW 02:38:36 10° S
STARLINK-1353 3.7 02:31:17 21° WSW 02:33:23 53° NNW 02:36:49 10° NE
STARLINK-1233 3.7 02:29:48 10° NW 02:33:58 82° NE 02:38:06 10° ESE
STARLINK-1375 3.7 02:33:04 20° WSW 02:35:15 51° NNW 02:38:41 10° NE
Cosmos 540 Rocket 3.5 02:32:23 16° SSW 02:36:33 79° ESE 02:41:43 10° NNE
Cosmos 2082 3.6 02:31:27 10° NNW 02:37:08 82° WSW 02:42:45 10° SSE
STARLINK-1350 3.8 02:35:22 18° W 02:37:39 49° NNW 02:41:04 10° NE
STARLINK-1204 3.6 02:34:47 10° NW 02:38:58 89° NE 02:43:05 10° SE
Cosmos 990 Rocket 4.3 02:34:06 10° NNW 02:39:07 46° WSW 02:44:04 10° S
STARLINK-1352 3.9 02:37:39 17° W 02:40:05 47° NNW 02:43:31 10° NE
Landsat 5 4.5 02:36:07 10° SSE 02:40:28 54° ENE 02:44:54 10° N
Cosmos 1825 Rocket 4.4 02:38:21 20° SW 02:40:46 34° WNW 02:44:44 10° N
Cosmos 2278 3.8 02:36:08 14° SSW 02:40:59 75° ESE 02:46:39 10° NNE
STARLINK-1368 3.9 02:39:45 16° W 02:42:16 46° NNW 02:45:41 10° NE
Cosmos 1455 3.6 02:40:02 10° NW 02:42:58 22° W 02:44:16 18° WSW
Meteor 1-11 4.2 02:38:11 14° SSW 02:43:09 76° W 02:48:46 10° N
Meteor 1-28 Rocket 3.1 02:39:38 10° S 02:43:25 81° WSW 02:47:13 10° NNW
CZ-2D R/B 3.6 02:39:28 10° NNE 02:43:35 77° ESE 02:47:41 11° S
SL-16 R/B 3.8 02:41:06 16° WSW 02:43:45 20° W 02:48:13 10° NW
STARLINK-1238 3.5 02:39:45 10° NW 02:43:54 85° SW 02:48:03 10° SE
STARLINK-1369 4.0 02:41:37 15° W 02:44:11 44° NNW 02:47:33 10° NE
USA 234 3.9 02:38:49 10° ENE 02:45:06 48° SE 02:51:06 11° SSW
Cosmos 2074 Rocket 4.0 02:40:25 11° SSW 02:46:31 77° W 02:52:51 10° N
STARLINK-1372 4.1 02:43:57 14° W 02:46:41 43° NNW 02:50:04 10° NE
ATLAS CENTAUR R/B 2.8 02:43:49 10° WNW 02:47:20 47° SW 02:55:37 10° SSE
Cosmos 841 Rocket 3.5 02:44:27 15° SSW 02:48:52 76° WNW 02:54:07 10° NNE
STARLINK-1201 3.5 02:44:45 10° WNW 02:48:54 78° SW 02:53:02 10° SE
STARLINK-1378 4.1 02:46:05 14° W 02:48:54 41° NNW 02:52:18 10° NE
Cosmos 2263 Rocket 4.2 02:43:55 10° N 02:48:56 32° NE 02:53:55 10° ESE
STARLINK-1329 4.1 02:46:35 13° W 02:49:26 41° NNW 02:52:49 10° NE
STARLINK-1365 4.2 02:47:17 13° W 02:50:10 39° NNW 02:53:32 10° NE
Cosmos 372 Rocket 4.3 02:45:43 10° NNW 02:50:50 70° ENE 02:55:58 10° SSE
GP-B 4.5 02:47:32 10° NNW 02:51:03 23° WNW 02:53:36 14° WSW
STARLINK-1379 4.2 02:48:13 13° W 02:51:08 40° NNW 02:54:30 10° NE
STARLINK-1362 4.2 02:48:47 13° W 02:51:44 40° NNW 02:55:06 10° NE
COBE Rocket 3.9 02:48:34 10° S 02:53:25 66° W 02:58:27 10° NNW
STARLINK-1206 3.5 02:49:44 10° WNW 02:53:52 71° SW 02:57:59 10° SE
STARLINK-1373 4.3 02:50:59 12° W 02:54:02 39° NNW 02:57:24 10° NE
Cosmos-2242 4.1 02:50:59 10° NNW 02:54:34 27° W 02:57:21 14° SW
Cosmos 1869 4.2 02:51:29 10° N 02:55:18 50° E 02:59:04 10° SSE
Cosmos 1400 Rocket 2.9 02:51:50 10° NNW 02:55:54 59° W 02:59:57 10° S
STARLINK-1390 4.3 02:52:59 11° W 02:56:06 38° NNW 02:59:26 10° NE
Cosmos 2221 3.0 02:52:25 10° N 02:56:43 64° E 03:01:02 10° SSE
ATLAS 3B R/B 4.3 02:55:13 10° W 02:58:01 13° WSW 02:59:51 12° WSW
Cosmos 2184 Rocket 4.1 02:51:57 10° SSW 02:58:04 65° W 03:04:13 10° N
STARLINK-1205 3.6 02:54:43 10° WNW 02:58:50 65° SW 03:02:56 10° SE
SL-08 R/B 3.8 02:54:34 10° SSW 02:58:59 39° W 03:03:21 10° NNW
CZ-4C R/B 3.0 02:55:48 10° SSE 02:59:22 84° WSW 03:03:01 10° NNW
STARLINK-1218 3.6 02:59:42 10° WNW 03:03:47 59° SW 03:07:51 10° SE
CZ-2D R/B 4.1 03:05:15 10° NNW 03:07:34 13° WNW 03:09:52 10° W
Cosmos 2227 Rocket 3.2 03:04:02 10° NW 03:08:40 26° WSW 03:13:17 10° SSW
STARLINK-1254 3.7 03:04:42 10° WNW 03:08:45 54° SW 03:12:48 10° SE
Cosmos 1697 Rocket 3.3 03:04:56 12° SW 03:09:59 44° WNW 03:15:25 10° NNE
ADEOS II 3.2 03:06:02 10° N 03:10:30 29° WNW 03:14:57 10° WSW
Cosmos 2150 Rocket 4.1 03:07:40 10° NNW 03:12:53 82° ENE 03:18:01 10° SSE
STARLINK-1231 3.8 03:09:44 10° WNW 03:13:44 49° SW 03:17:44 10° SSE
SL-16 R/B 3.7 03:10:47 10° S 03:15:51 35° ESE 03:20:57 10° NE
Cosmos 1315 Rocket 2.9 03:12:02 10° N 03:15:58 81° E 03:19:52 10° SSE
Resurs 1-4 Rocket 4.3 03:15:53 10° NW 03:16:56 11° NW 03:17:59 10° WNW
CZ-2C R/B 2.7 03:13:50 10° N 03:17:30 65° WNW 03:21:12 10° SSW
MSX 4.0 03:12:45 10° NNE 03:18:34 79° ESE 03:24:18 10° S
STARLINK-1232 3.9 03:14:44 10° WNW 03:18:42 45° SW 03:22:39 10° SSE
SAR-Lupe-4 3.8 03:15:58 10° SSE 03:19:31 74° ENE 03:23:07 10° N
H-2A R/B 2.5 03:15:46 10° S 03:19:50 42° W 03:24:01 10° NNW
ARIANE 5 R/B 3.4 03:17:35 10° N 03:22:08 34° WNW 03:26:36 10° SW
deb Chang Zheng 4 3.9 03:19:15 10° NNE 03:23:34 67° ESE 03:27:49 10° S
STARLINK-1208 4.0 03:19:44 10° WNW 03:23:38 41° SW 03:27:32 10° SSE
BREEZE-M R/B 4.1 03:21:13 10° WNW 03:23:53 23° NNW 03:25:59 10° NE
STARLINK-1225 4.5 03:21:56 10° NW 03:26:01 55° NNE 03:30:05 10° ESE
STARLINK-1271 4.1 03:24:46 10° WNW 03:28:36 37° SW 03:32:26 10° SSE
SL-24 DEB 4.3 03:24:11 10° N 03:28:46 62° W 03:33:18 10° SSW
Cosmos 2154 Rocket 4.2 03:23:54 10° SSW 03:30:05 57° WNW 03:36:16 10° N
Lacrosse 4 Rocket 1.8 03:26:23 10° NW 03:30:29 42° WSW 03:34:26 10° S
STARLINK-1230 4.3 03:26:54 10° NW 03:31:00 59° NNE 03:35:05 10° ESE
